TimeEST,TemperatureF,Dew PointF,Humidity,Sea Level PressureIn,VisibilityMPH,Wind Direction,Wind SpeedMPH,Gust SpeedMPH,PrecipitationIn,Events,Conditions,WindDirDegrees,DateUTC
12:15 AM,32.0,21.2,64,29.83,10.0,NW,4.6,-,N/A,,Overcast,320,2013-02-13 05:15:00
12:35 AM,32.0,21.2,64,29.82,10.0,NW,4.6,-,N/A,,Overcast,310,2013-02-13 05:35:00
12:55 AM,30.2,21.2,69,29.83,10.0,NW,5.8,-,N/A,,Overcast,310,2013-02-13 05:55:00
1:15 AM,30.2,21.2,69,29.83,10.0,West,8.1,-,N/A,,Overcast,280,2013-02-13 06:15:00
1:35 AM,30.2,19.4,64,29.82,10.0,WNW,9.2,-,N/A,,Overcast,290,2013-02-13 06:35:00
1:55 AM,30.2,19.4,64,29.82,10.0,NW,5.8,-,N/A,,Overcast,310,2013-02-13 06:55:00
2:15 AM,30.2,19.4,64,29.82,10.0,WNW,5.8,-,N/A,,Overcast,290,2013-02-13 07:15:00
2:35 AM,30.2,19.4,64,29.82,10.0,WSW,6.9,-,N/A,,Overcast,250,2013-02-13 07:35:00
2:55 AM,30.2,19.4,64,29.83,10.0,West,5.8,-,N/A,,Overcast,280,2013-02-13 07:55:00
3:15 AM,30.2,19.4,64,29.82,10.0,NW,4.6,-,N/A,,Overcast,310,2013-02-13 08:15:00
3:35 AM,30.2,19.4,64,29.83,10.0,West,4.6,-,N/A,,Overcast,270,2013-02-13 08:35:00
3:55 AM,30.2,23.0,75,29.83,10.0,West,9.2,-,N/A,,Overcast,260,2013-02-13 08:55:00
4:15 AM,30.2,21.2,69,29.83,10.0,WSW,6.9,-,N/A,,Overcast,250,2013-02-13 09:15:00
4:35 AM,30.2,21.2,69,29.83,10.0,WSW,9.2,-,N/A,,Overcast,250,2013-02-13 09:35:00
4:55 AM,30.2,23.0,75,29.83,10.0,WSW,3.5,-,N/A,,Overcast,240,2013-02-13 09:55:00
5:15 AM,30.2,21.2,69,29.83,10.0,Calm,Calm,-,N/A,,Overcast,0,2013-02-13 10:15:00
5:35 AM,30.2,21.2,69,29.83,10.0,Calm,Calm,-,N/A,,Overcast,0,2013-02-13 10:35:00
5:55 AM,30.2,21.2,69,29.82,10.0,Calm,Calm,-,N/A,,Overcast,0,2013-02-13 10:55:00
6:15 AM,30.2,21.2,69,29.82,10.0,West,6.9,-,N/A,,Overcast,270,2013-02-13 11:15:00
6:35 AM,28.4,21.2,74,29.82,10.0,Calm,Calm,-,N/A,,Overcast,0,2013-02-13 11:35:00
6:55 AM,28.4,21.2,74,29.82,10.0,West,3.5,-,N/A,,Overcast,260,2013-02-13 11:55:00
7:15 AM,28.4,21.2,74,29.82,10.0,WSW,4.6,-,N/A,,Mostly Cloudy,240,2013-02-13 12:15:00
7:35 AM,28.4,21.2,74,29.83,10.0,WSW,3.5,-,N/A,,Mostly Cloudy,240,2013-02-13 12:35:00
7:55 AM,28.4,21.2,74,29.83,10.0,Calm,Calm,-,N/A,,Overcast,0,2013-02-13 12:55:00
8:15 AM,30.2,21.2,69,29.83,10.0,West,3.5,-,N/A,,Overcast,260,2013-02-13 13:15:00
8:35 AM,30.2,21.2,69,29.83,10.0,WSW,4.6,-,N/A,,Overcast,250,2013-02-13 13:35:00
8:55 AM,30.2,21.2,69,29.83,10.0,WSW,9.2,-,N/A,,Overcast,250,2013-02-13 13:55:00
9:15 AM,30.2,23.0,75,29.83,10.0,West,9.2,-,N/A,,Mostly Cloudy,260,2013-02-13 14:15:00
9:35 AM,32.0,21.2,64,29.82,10.0,WNW,8.1,-,N/A,,Overcast,290,2013-02-13 14:35:00
9:55 AM,32.0,21.2,64,29.82,10.0,WNW,5.8,-,N/A,,Overcast,290,2013-02-13 14:55:00
10:15 AM,32.0,21.2,64,29.82,10.0,West,8.1,-,N/A,,Overcast,280,2013-02-13 15:15:00
10:55 AM,33.8,19.4,56,29.81,10.0,West,4.6,-,N/A,,Overcast,270,2013-02-13 15:55:00
11:15 AM,33.8,19.4,56,29.81,10.0,West,6.9,-,N/A,,Overcast,270,2013-02-13 16:15:00
11:35 AM,33.8,19.4,56,29.80,10.0,WNW,6.9,-,N/A,,Mostly Cloudy,290,2013-02-13 16:35:00
11:55 AM,33.8,19.4,56,29.79,10.0,SW,3.5,-,N/A,,Mostly Cloudy,230,2013-02-13 16:55:00
12:15 PM,33.8,19.4,56,29.78,10.0,West,8.1,-,N/A,,Overcast,270,2013-02-13 17:15:00
12:35 PM,33.8,19.4,56,29.78,10.0,WSW,11.5,-,N/A,,Overcast,240,2013-02-13 17:35:00
12:55 PM,33.8,17.6,52,29.78,10.0,WSW,4.6,-,N/A,,Overcast,250,2013-02-13 17:55:00
1:15 PM,33.8,15.8,48,29.78,10.0,Calm,Calm,-,N/A,,Overcast,0,2013-02-13 18:15:00
1:35 PM,33.8,15.8,48,29.77,10.0,West,4.6,-,N/A,,Overcast,270,2013-02-13 18:35:00
1:55 PM,33.8,17.6,52,29.76,10.0,West,3.5,-,N/A,,Overcast,260,2013-02-13 18:55:00
2:35 PM,35.6,17.6,48,29.75,10.0,WSW,9.2,-,N/A,,Overcast,250,2013-02-13 19:35:00
2:55 PM,33.8,17.6,52,29.75,10.0,SW,8.1,-,N/A,,Overcast,230,2013-02-13 19:55:00
3:15 PM,33.8,19.4,56,29.74,10.0,West,4.6,-,N/A,,Overcast,270,2013-02-13 20:15:00
3:35 PM,33.8,19.4,56,29.74,10.0,West,5.8,-,N/A,,Overcast,260,2013-02-13 20:35:00
3:55 PM,33.8,19.4,56,29.74,10.0,SSW,4.6,-,N/A,,Overcast,210,2013-02-13 20:55:00
4:15 PM,33.8,19.4,56,29.74,10.0,SW,4.6,-,N/A,,Overcast,230,2013-02-13 21:15:00
4:35 PM,33.8,19.4,56,29.75,10.0,WSW,8.1,-,N/A,,Overcast,250,2013-02-13 21:35:00
4:55 PM,33.8,19.4,56,29.74,10.0,SW,3.5,-,N/A,,Overcast,230,2013-02-13 21:55:00
5:15 PM,33.8,19.4,56,29.74,10.0,Calm,Calm,-,N/A,,Overcast,0,2013-02-13 22:15:00
5:35 PM,33.8,19.4,56,29.73,10.0,Calm,Calm,-,N/A,,Overcast,0,2013-02-13 22:35:00
5:55 PM,32.0,19.4,60,29.73,10.0,East,3.5,-,N/A,,Overcast,80,2013-02-13 22:55:00
6:15 PM,30.2,19.4,64,29.72,10.0,Calm,Calm,-,N/A,,Mostly Cloudy,0,2013-02-13 23:15:00
6:35 PM,28.4,19.4,69,29.72,10.0,Calm,Calm,-,N/A,,Partly Cloudy,0,2013-02-13 23:35:00
6:55 PM,28.4,19.4,69,29.73,10.0,SSE,4.6,-,N/A,,Clear,150,2013-02-13 23:55:00
7:15 PM,28.4,19.4,69,29.74,10.0,Calm,Calm,-,N/A,,Clear,0,2013-02-14 00:15:00
7:35 PM,28.4,19.4,69,29.73,10.0,SE,4.6,-,N/A,,Clear,140,2013-02-14 00:35:00
7:55 PM,26.6,19.4,74,29.73,10.0,Calm,Calm,-,N/A,,Clear,0,2013-02-14 00:55:00
8:15 PM,28.4,17.6,64,29.73,10.0,Calm,Calm,-,N/A,,Clear,0,2013-02-14 01:15:00
8:35 PM,28.4,19.4,69,29.74,10.0,SE,5.8,-,N/A,,Clear,140,2013-02-14 01:35:00
8:55 PM,26.6,19.4,74,29.75,10.0,South,3.5,-,N/A,,Clear,180,2013-02-14 01:55:00
9:35 PM,26.6,17.6,69,29.74,10.0,SE,5.8,-,N/A,,Clear,140,2013-02-14 02:35:00
9:55 PM,26.6,17.6,69,29.74,10.0,SE,6.9,-,N/A,,Clear,130,2013-02-14 02:55:00
10:15 PM,26.6,17.6,69,29.74,10.0,ESE,5.8,-,N/A,,Clear,120,2013-02-14 03:15:00
10:35 PM,26.6,17.6,69,29.73,10.0,ESE,5.8,-,N/A,,Clear,120,2013-02-14 03:35:00
10:55 PM,26.6,17.6,69,29.73,10.0,SE,6.9,-,N/A,,Clear,130,2013-02-14 03:55:00
11:15 PM,26.6,17.6,69,29.73,10.0,ESE,4.6,-,N/A,,Clear,120,2013-02-14 04:15:00
11:35 PM,26.6,17.6,69,29.72,10.0,Calm,Calm,-,N/A,,Clear,0,2013-02-14 04:35:00
11:55 PM,26.6,17.6,69,29.72,10.0,ESE,3.5,-,N/A,,Clear,110,2013-02-14 04:55:00